Theta_e
331 337 346 348 348 347 346 346 345 346 344 343 341 338 337 337 337 337 337 337 336 336 335 335 335 334 333 332 333 333 333 333 333 334 335 335 336 337 337 338 338 336 337
333 340 345 347 348 347 349 346 346 347 345 344 340 338 337 336 336 336 335 335 335 335 335 334 334 334 333 332 331 330 329 330 331 331 332 333 333 332 332 333 336 336 339
338 342 342 345 347 345 346 346 347 346 345 342 340 338 337 336 336 335 334 334 334 334 334 333 333 334 333 332 332 332 331 330 331 331 329 324 324 329 329 329 330 334 337
340 342 341 343 346 344 344 345 345 345 343 340 338 337 336 336 335 335 334 333 333 332 332 332 332 332 332 332 331 331 331 331 331 329 319 321 325 329 327 328 329 328 328
340 341 340 343 344 343 344 346 345 344 341 338 338 336 335 335 335 334 333 333 332 331 330 329 330 330 330 330 330 330 330 330 330 321 316 316 316 329 328 327 326 326 327
338 340 340 344 346 346 345 346 346 343 339 337 337 336 335 335 335 334 333 332 331 330 330 330 329 328 328 329 329 330 331 331 330 319 317 317 318 329 331 330 331 330 330
334 338 340 343 345 346 346 345 345 343 340 339 337 336 335 335 333 333 332 332 332 332 332 330 330 332 332 331 331 331 331 332 326 320 317 316 315 328 332 331 330 331 334
335 337 340 337 340 342 344 345 344 344 343 341 339 337 336 335 334 334 333 333 332 332 332 332 333 333 332 331 331 331 331 330 326 319 318 316 320 327 332 331 331 331 333
337 336 336 337 337 335 338 339 341 342 341 341 340 339 338 336 336 336 336 335 334 333 334 334 334 334 333 333 334 334 331 330 324 320 321 317 322 327 330 331 331 330 330
335 335 334 334 336 336 336 333 335 337 338 338 337 334 332 332 333 332 331 333 334 334 335 335 335 334 334 334 334 332 329 328 323 320 319 317 324 329 331 331 331 330 331
332 334 334 334 333 333 334 333 331 332 333 333 332 329 328 325 328 328 328 330 334 335 336 336 336 336 334 332 331 329 327 322 320 320 318 321 326 330 332 332 334 333 331
325 330 334 333 332 332 335 332 331 333 331 331 330 327 325 325 326 328 324 325 330 330 332 335 335 333 328 324 323 324 320 319 319 319 318 323 328 331 333 334 336 336 334
319 325 330 333 333 332 333 331 329 330 329 329 328 326 325 326 325 325 323 323 322 321 323 325 324 323 322 321 321 320 319 318 318 319 320 324 328 331 333 333 336 337 337
326 327 322 328 329 328 326 329 330 329 329 328 329 329 326 325 324 323 323 323 322 322 321 321 320 321 320 321 321 320 319 319 319 319 318 320 326 331 334 334 333 336 338
326 328 328 322 321 323 322 325 327 327 327 328 329 329 327 325 324 324 323 323 322 322 322 321 321 321 320 321 320 320 320 319 320 321 321 318 322 328 332 334 334 335 335
328 328 330 326 326 325 324 324 324 323 323 324 324 325 326 325 325 324 324 323 323 323 322 321 321 320 320 319 319 319 320 319 320 320 321 321 321 325 329 332 334 335 336
306 316 327 330 329 329 329 331 331 331 331 329 328 328 328 329 327 327 326 322 322 322 321 320 320 319 318 318 317 318 319 319 319 320 320 321 321 320 323 328 331 333 335
306 308 312 321 330 330 329 330 330 332 334 333 333 333 333 332 331 327 326 325 325 324 323 322 322 322 321 320 320 320 321 322 322 322 322 322 322 322 323 325 328 330 332
307 309 312 317 319 328 331 331 332 332 334 334 334 334 334 334 333 331 329 328 328 327 326 325 326 323 323 324 324 324 325 325 325 325 323 322 322 322 322 323 322 322 327
303 305 308 310 312 321 332 332 333 332 331 330 328 326 327 328 330 331 330 330 330 329 328 328 327 328 326 326 326 326 327 327 328 327 326 325 324 324 325 325 325 323 320
301 302 303 304 305 314 319 325 327 324 320 319 318 317 312 311 313 315 319 319 321 324 322 323 323 323 323 324 322 319 320 323 324 324 324 324 324 324 323 324 324 324 324
298 299 300 301 302 305 310 319 322 318 313 311 311 309 309 306 306 307 307 309 311 312 311 312 313 314 316 317 314 312 310 311 316 316 317 318 319 319 319 321 321 322 322
294 295 297 298 299 300 305 309 308 308 305 304 303 303 303 302 301 302 302 303 304 305 304 304 305 307 308 312 312 311 307 305 308 312 313 313 313 315 316 317 319 319 319
292 294 295 296 295 296 299 300 300 298 296 298 299 299 300 300 298 299 299 300 300 301 300 301 302 303 305 303 305 307 307 308 304 302 310 310 313 313 313 315 316 317 319
293 292 294 294 294 294 295 296 296 295 295 295 295 295 296 297 296 296 297 297 298 298 298 298 299 299 300 298 298 299 300 301 301 298 295 299 304 307 310 312 313 315 316
291 293 293 293 293 294 293 293 293 293 293 292 293 292 293 294 294 295 295 296 296 296 297 297 296 295 295 295 295 295 295 295 294 295 294 294 295 299 303 305 307 310 313
Wind_Speed
5 6 13 13 17 14 14 15 12 14 15 14 13 13 12 11 11 10 10 10 10 10 11 11 11 10 11 10 10 10 9 9 9 10 9 8 8 8 9 9 7 4 8
10 7 12 13 13 12 14 14 10 17 15 14 12 12 12 12 11 10 10 9 9 9 10 10 10 10 10 10 9 9 9 8 8 9 8 6 6 6 6 6 6 5 5
12 8 9 12 12 12 13 13 12 14 15 13 11 11 11 10 10 9 8 8 7 8 8 8 8 9 9 9 8 8 8 8 9 10 11 2 2 4 4 4 5 5 6
13 9 8 11 12 13 13 12 12 12 13 12 11 10 10 9 8 8 7 6 6 6 6 6 6 6 6 7 7 7 9 10 12 12 5 4 5 1 2 3 3 4 4
11 9 9 11 12 12 12 11 12 11 11 11 10 9 8 7 7 6 5 5 4 4 4 4 4 4 4 5 5 6 7 9 10 8 6 4 4 3 2 2 1 2 3
10 8 9 11 12 11 11 11 13 12 11 10 9 8 7 6 6 4 3 2 2 1 1 1 2 3 3 4 5 6 7 8 9 6 5 6 5 9 6 6 5 6 6
7 6 8 11 11 10 10 13 12 11 10 9 9 7 6 5 4 3 2 1 1 2 3 3 2 4 5 6 6 7 8 7 5 5 6 5 6 11 11 9 9 10 10
10 7 6 8 9 9 10 11 11 11 10 9 8 7 6 6 5 4 4 4 4 5 5 5 6 6 7 8 8 9 8 8 5 6 6 6 11 13 15 13 13 12 13
10 7 6 6 5 6 6 7 8 9 8 8 7 7 6 5 5 5 6 7 7 7 8 8 8 9 10 10 11 9 9 10 6 4 6 4 13 15 15 16 15 14 15
9 9 7 6 6 5 5 7 7 9 9 8 8 7 6 5 5 6 7 8 9 9 10 10 10 11 12 12 11 10 11 10 6 6 5 5 16 16 17 18 15 16 16
6 8 7 7 6 6 5 5 7 8 8 8 7 8 7 3 5 6 6 9 11 11 11 12 11 11 11 10 11 12 11 4 5 4 4 11 16 17 18 18 16 17 18
5 6 8 6 6 5 5 6 5 4 4 4 4 5 4 5 5 5 6 9 11 11 11 11 12 11 8 4 4 8 3 5 4 5 4 13 17 19 20 19 17 18 19
6 3 6 8 6 6 5 3 2 3 3 3 6 5 5 3 4 3 3 3 3 6 4 5 5 4 5 4 4 4 5 5 4 4 7 13 17 19 21 21 20 19 20
5 7 7 7 7 6 4 3 4 3 3 3 4 6 4 3 4 4 3 4 3 3 5 4 3 5 6 6 6 7 6 6 5 5 6 13 17 21 23 23 23 22 22
5 5 7 7 7 6 5 4 4 4 4 5 4 5 4 4 4 4 4 3 4 3 4 4 4 5 5 6 6 6 7 7 8 5 5 11 15 20 23 25 25 25 25
5 6 6 7 7 6 5 5 4 3 4 4 4 5 6 4 4 4 4 4 4 4 4 4 5 5 5 5 6 6 8 7 8 8 7 8 14 18 22 24 26 26 26
5 5 6 5 7 7 6 4 3 3 3 3 4 5 6 5 5 5 4 4 4 4 5 4 5 4 4 5 7 6 7 9 8 9 9 8 8 13 18 23 25 26 27
8 9 8 7 3 4 6 4 3 2 2 2 3 3 4 4 4 4 3 4 4 3 3 3 4 5 5 5 7 7 7 8 10 11 9 9 8 8 8 14 19 23 25
10 11 11 10 9 3 3 1 2 3 4 5 4 5 6 6 5 4 3 3 4 3 3 4 5 4 6 7 7 8 7 8 9 9 10 10 9 7 6 11 15 17 20
11 11 11 9 12 8 2 1 2 6 6 8 9 9 12 10 10 7 6 7 6 5 5 5 5 5 4 6 7 8 8 8 9 8 9 6 5 8 9 9 9 8 14
13 13 13 13 13 9 4 3 7 8 7 9 10 14 14 12 12 12 8 9 9 8 10 11 6 8 6 7 5 7 7 7 7 6 4 6 9 9 7 8 7 7 7
11 12 13 13 13 10 7 4 5 5 7 7 8 12 13 14 13 11 10 9 10 8 10 11 11 7 3 5 5 7 5 7 3 12 9 6 8 5 9 9 9 9 8
12 11 12 12 13 12 11 7 6 5 6 6 9 8 10 11 12 11 11 9 9 8 8 8 10 10 8 5 8 3 5 5 13 5 11 7 6 9 7 9 10 9 10
9 8 11 13 14 13 13 11 14 9 7 5 5 6 7 11 12 12 11 10 9 7 9 8 8 7 7 8 7 9 6 9 7 10 4 12 8 11 10 7 9 9 11
7 8 9 12 14 13 14 12 8 8 5 4 5 8 9 8 11 12 11 10 10 8 9 10 9 10 7 6 6 8 8 8 3 7 10 11 10 11 11 12 13 10 10
7 9 9 12 13 13 13 13 12 11 9 8 9 8 7 6 8 12 11 10 9 9 9 8 9 9 9 7 6 6 6 5 9 8 12 14 14 8 10 10 10 11 11
Wind_Direction
166 162 149 138 149 153 146 135 134 135 124 110 104 100 97 95 90 86 84 81 79 77 74 72 69 66 64 61 60 55 48 43 46 43 38 43 54 62 63 62 59 70 88
139 153 145 138 130 117 128 116 130 134 125 110 105 103 101 100 95 89 87 81 80 81 78 74 70 65 61 56 52 49 42 40 33 21 8 27 21 50 55 55 43 60 84
139 146 139 138 131 124 110 112 123 125 115 109 107 106 105 101 99 96 90 84 80 80 77 73 68 62 58 54 47 36 24 19 16 19 14 266 291 49 46 48 40 28 32
137 139 134 134 135 136 133 130 118 115 113 114 113 113 113 110 103 100 97 91 83 78 74 67 64 59 52 44 35 26 14 5 1 5 13 312 282 70 31 14 20 9 356
131 134 139 136 139 143 145 135 129 122 120 121 121 120 119 117 115 112 106 96 85 74 65 54 45 40 32 22 11 4 359 353 350 360 342 343 285 248 253 263 285 305 310
128 129 143 142 143 140 152 150 138 130 129 131 132 133 126 126 123 120 117 97 99 93 82 43 13 358 346 341 335 332 333 334 338 334 328 320 319 281 260 270 263 261 263
123 131 145 145 146 142 126 141 133 137 140 142 144 147 147 148 153 156 164 206 249 285 309 301 294 302 305 306 308 310 313 315 315 310 304 298 297 296 273 272 275 274 273
133 138 140 145 147 151 146 144 149 150 153 156 160 163 165 171 184 195 218 236 253 267 276 281 282 289 289 292 295 296 296 295 300 295 294 293 294 294 274 276 275 275 273
132 134 136 143 152 154 153 157 160 159 160 164 167 173 187 212 223 224 231 246 259 268 276 282 288 292 291 289 287 286 283 286 285 275 284 284 286 286 281 275 275 274 277
139 144 149 150 154 159 172 179 186 177 174 182 186 191 199 211 245 266 266 269 269 269 265 270 270 278 284 285 280 278 282 287 274 267 269 269 280 284 285 281 277 276 280
145 156 156 162 168 171 179 190 184 187 190 199 198 198 212 231 243 259 256 254 260 261 260 261 263 270 274 277 279 279 280 264 264 261 257 270 279 283 287 282 278 275 280
172 174 167 176 184 183 187 179 199 203 218 226 233 222 225 237 245 250 262 262 255 252 261 264 269 272 277 268 275 286 278 273 267 263 259 269 279 284 286 287 277 271 276
178 189 181 178 191 186 203 184 196 200 216 233 239 241 242 249 258 266 269 279 279 266 260 270 277 269 268 264 267 260 262 266 257 259 261 265 274 281 287 288 284 277 273
166 172 199 197 180 199 190 191 191 196 215 230 239 243 238 247 253 259 258 258 254 258 268 261 265 267 263 261 256 266 262 262 264 263 255 256 265 277 283 284 282 281 278
208 212 190 185 193 187 185 188 187 211 214 230 230 237 224 236 239 241 251 261 263 268 258 268 260 264 263 262 258 254 261 259 259 262 267 258 263 272 278 279 280 279 278
286 231 205 189 194 179 185 190 206 213 231 227 236 238 234 234 241 245 262 264 271 256 259 250 256 262 266 268 270 264 264 262 264 264 268 269 258 262 269 275 277 276 276
359 349 309 237 186 179 177 179 189 215 213 251 251 240 237 232 238 250 257 263 254 263 276 279 276 269 270 265 265 266 269 264 260 259 258 261 264 256 257 265 273 275 274
11 20 9 355 226 204 179 188 202 274 273 280 308 304 288 284 278 260 263 272 280 284 284 281 285 287 282 275 284 277 276 276 272 266 267 260 258 262 263 263 266 270 273
17 15 23 15 9 296 204 184 48 19 39 34 26 16 13 19 9 16 351 338 329 315 304 295 300 272 294 293 287 283 279 271 268 272 268 263 263 270 265 268 263 264 268
26 25 21 24 15 3 86 117 76 65 56 52 41 39 34 30 24 20 19 9 359 351 341 326 305 311 282 288 296 290 282 276 275 277 278 293 280 278 277 278 284 278 265
31 30 26 26 9 22 16 30 67 64 49 53 50 41 39 31 24 28 21 21 12 16 13 5 352 347 334 350 308 327 296 277 275 294 304 289 289 290 293 284 280 282 284
30 30 30 31 25 23 26 29 50 68 56 50 43 43 35 34 28 30 23 23 18 18 16 12 10 349 320 353 343 303 332 318 19 330 310 312 296 305 306 298 299 287 287
28 24 33 33 38 31 31 41 48 51 34 36 28 30 30 34 31 30 26 24 23 25 17 10 9 10 349 342 360 314 334 324 319 298 311 297 316 310 307 310 302 301 297
23 27 40 42 42 36 33 48 55 56 54 16 20 18 24 29 28 26 24 21 21 18 18 9 6 7 5 358 342 9 333 325 321 319 357 324 327 322 312 298 294 296 295
26 32 45 50 48 42 43 47 50 56 45 28 23 28 22 22 28 21 22 19 18 17 13 8 11 14 18 1 360 343 336 332 345 312 315 333 319 320 325 333 321 310 303
28 42 45 54 48 42 44 43 42 39 36 32 23 22 16 12 17 19 15 17 18 14 13 7 14 13 12 6 357 356 354 348 331 331 319 324 317 313 314 298 313 329 338